Back to catalog

STARLINK-6049

AliveCommunicationsVLEO
NORAD 56796·PAYLOAD·🇺🇸 United States

Launched May 31, 2023 from Vandenberg Space Force Base

Loading…

Next Passes (next 24 hours)

TLE

FreshSource: CelesTrak SupGP

Epoch: Sep 14, 2026, 14:44 UTC

1 56796C 23078AF  26257.61437500 -.00037871  00000+0 -31741-2 0  2573
2 56796  70.0011 228.2060 0003667 267.4653 207.1860 14.98343097    12

Track STARLINK-6049 in real time with AllMySat

Download on the App Store